This demonstration page uses our WeatherBlox Daily Observations layout. Learn more.

Left ArrowRight Arrow

38.88101, -77.10428

Hourly Observations for August 21, 2020

Temp ( °F °C ) Dew Point ( °F °C ) Humidity (%) Winds ( mph kmh ) Pressure ( in mb ) Visibility ( mi km ) Precip ( " mm )
12:52 am 00:52 Mostly Cloudy 73 22.8 67 19.4 81 81 S 8 13 30.03 1017 10 16.0934 0 0
1:52 am 01:52 Mostly Cloudy 72 22.2 67 19.4 84 84 SSE 7 11 30.02 1017 10 16.0934 0 0
2:52 am 02:52 Mostly Cloudy 72 22.2 67 19.4 84 84 SSW 8 13 30.01 1016 10 16.0934 0 0
3:52 am 03:52 Mostly Cloudy 71 21.7 67 19.4 87 87 SSW 5 7 30.01 1016 10 16.0934 0 0
4:52 am 04:52 Mostly Cloudy 70 21.1 67 19.4 90 90 SW 3 6 30 1016 10 16.0934 0 0
5:52 am 05:52 Mostly Cloudy 70 21.1 66 18.9 87 87 WSW 3 6 30 1016 10 16.0934 0 0
6:52 am 06:52 Cloudy 70 21.1 67 19.4 90 90 SW 5 7 30.02 1017 10 16.0934 0 0
7:24 am 07:24 Cloudy 72 22.2 68 20 87 87 Calm 30.02 1017 10 16.0934 0 0
7:52 am 07:52 Cloudy 73 22.8 69 20.6 87 87 Calm 30.02 1017 10 16.0934 0 0
8:01 am 08:01 Cloudy 73 22.8 69 20.6 87 87 Calm 30.02 1017 10 16.0934 0 0
8:52 am 08:52 Cloudy 74 23.3 70 21.1 88 88 S 6 9 30.02 1017 10 16.0934 0 0
9:52 am 09:52 Cloudy 76 24.4 71 21.7 85 85 S 8 13 30.02 1017 10 16.0934 0 0
10:52 am 10:52 Cloudy 77 25 71 21.7 82 82 S 7 11 30.03 1017 10 16.0934 0 0
11:52 am 11:52 Cloudy 79 26.1 71 21.7 77 77 S 9 15 30.02 1017 10 16.0934 0 0
12:52 pm 12:52 Cloudy 81 27.2 70 21.1 69 69 S 9 15 30 1016 10 16.0934 0 0
1:52 pm 13:52 Cloudy 83 28.3 71 21.7 67 67 SSE 9 15 29.98 1015 10 16.0934 0 0
2:52 pm 14:52 Cloudy 83 28.3 69 20.6 63 63 S 9 15 29.96 1015 10 16.0934 0 0
3:52 pm 15:52 Cloudy 83 28.3 70 21.1 65 65 S 10 17 29.95 1014 10 16.0934 0 0
4:52 pm 16:52 Cloudy 82 27.8 68 20 63 63 S 10 17 29.93 1014 10 16.0934 0 0
5:52 pm 17:52 Cloudy 82 27.8 69 20.6 65 65 S 9 15 29.93 1014 10 16.0934 0 0
6:52 pm 18:52 Cloudy 81 27.2 68 20 65 65 S 10 17 29.93 1013 10 16.0934 0 0
7:52 pm 19:52 Cloudy 80 26.7 70 21.1 71 71 S 10 17 29.93 1014 10 16.0934 0 0
8:52 pm 20:52 Cloudy 79 26.1 71 21.7 77 77 S 9 15 29.95 1014 10 16.0934 0 0
9:52 pm 21:52 Cloudy 78 25.6 71 21.7 79 79 SSW 7 11 29.97 1015 10 16.0934 0.001 0.001
10:52 pm 22:52 Cloudy 77 25 72 22.2 85 85 S 8 13 29.96 1015 10 16.0934 0.001 0.001
11:52 pm 23:52 Cloudy with Light Rain 77 25 72 22.2 85 85 SW 6 9 29.97 1015 10 16.0934 0.001 0.001

Powered by AerisWeather